Lambertville, MI

7:18 PM EST on February 06, 2016 (GMT -0500)
Toledo Suburban Airport

Weather History for KDUH - October, 2012

Change the Weather History Date:

Tuesday, October 23, 2012

  Actual Average (KTOL) Record (KTOL)
Temperature  
Mean Temperature 67 °F 50 °F  
Max Temperature 72 °F 60 °F 83 °F (1963)
Min Temperature 62 °F 40 °F 21 °F (1969)
Degree Days  
Heating Degree Days 0 15  
Month to date heating degree days 271  
Since 1 July heating degree days 395  
Cooling Degree Days 2 0  
Month to date cooling degree days 8  
Year to date cooling degree days 792  
Growing Degree Days 17 (Base 50)    
Moisture  
Dew Point 56 °F    
Average Humidity 73    
Maximum Humidity 84    
Minimum Humidity 59    
Precipitation  
Precipitation 0.00 in 0.08 in 1.68 in (1957)
Month to date precipitation 1.95  
Year to date precipitation 28.05  
Snow  
Snow 0.00 in 0.00 in - ()
Month to date snowfall 0.1  
Since 1 July snowfall 0.1  
Since 1 September snowfall 0.1  
Snow Depth -    
Sea Level Pressure  
Sea Level Pressure 29.97 in    
Wind  
Wind Speed 5 mph (SW)    
Max Wind Speed 10 mph    
Max Gust Speed 17 mph    
Visibility 10 miles    
Events Rain    
T = Trace of Precipitation, MM = Missing Value Source: NWS Daily Summary

Daily Weather History Graph

Daily Weather History Graph

Search for Another Location

Airport or City:

Trip Planner

Search our weather history database for the weather conditions in past years. The results will help you decide how hot, cold, wet, or windy it might be!

Date:

Astronomy

Oct. 23, 2012 Rise Set
Actual Time 7:56 AM EDT 6:40 PM EDT
Civil Twilight 7:28 AM EDT 7:08 PM EDT
Nautical Twilight 6:55 AM EDT 7:41 PM EDT
Astronomical Twilight 6:23 AM EDT 8:13 PM EDT
Moon 3:28 PM EDT (10/23) 1:42 AM EDT (10/23)
Length of Visible Light 11h 40m
Length of Day
10h 43m
Waxing Gibbous, 66% of the Moon is Illuminated
Oct 23
Waxing Gibbous
Oct 29
Full
Nov 6
Last Quarter
Nov 13
New
Nov 20
First Quarter

Hourly Weather History & Observations

Time (EDT) Temp. Dew Point Humidity Pressure Visibility Wind Dir Wind Speed Gust Speed Precip Events Conditions
12:15 AM 65.1 °F 55.0 °F 70% 30.00 in 10.0 mi South 3.5 mph - N/A Rain Rain
12:35 AM 62.8 °F 56.3 °F 79% 29.98 in 10.0 mi South 4.6 mph - N/A   Overcast
12:55 AM 62.6 °F 56.7 °F 81% 29.99 in 10.0 mi South 5.8 mph - N/A   Overcast
1:15 AM 62.6 °F 57.2 °F 82% 29.98 in 10.0 mi South 6.9 mph - N/A Rain Light Rain
1:35 AM 62.2 °F 57.2 °F 84% 29.97 in 10.0 mi South 5.8 mph - N/A   Overcast
2:15 AM 62.2 °F 57.4 °F 84% 29.98 in 10.0 mi Calm Calm - N/A   Overcast
2:35 AM 62.2 °F 57.2 °F 84% 29.96 in 10.0 mi South 5.8 mph - N/A Rain Light Rain
3:15 AM 62.8 °F 56.3 °F 79% 29.94 in 10.0 mi South 6.9 mph - N/A   Overcast
3:35 AM 63.0 °F 55.4 °F 76% 29.93 in 10.0 mi South 3.5 mph - N/A   Mostly Cloudy
3:55 AM 62.8 °F 55.0 °F 76% 29.94 in 10.0 mi South 4.6 mph - N/A   Scattered Clouds
4:15 AM 62.8 °F 54.7 °F 75% 29.93 in 10.0 mi South 5.8 mph - N/A   Scattered Clouds
4:35 AM 63.0 °F 54.5 °F 74% 29.94 in 10.0 mi South 6.9 mph - N/A   Mostly Cloudy
4:55 AM 63.5 °F 54.3 °F 72% 29.94 in 10.0 mi SSW 6.9 mph - N/A   Overcast
5:15 AM 63.7 °F 54.1 °F 71% 29.94 in 10.0 mi SSW 5.8 mph - N/A   Overcast
5:35 AM 63.9 °F 53.8 °F 70% 29.93 in 10.0 mi SSW 5.8 mph - N/A   Overcast
5:55 AM 64.0 °F 53.6 °F 69% 29.93 in 10.0 mi SSW 6.9 mph - N/A   Overcast
6:15 AM 64.8 °F 53.1 °F 66% 29.94 in 10.0 mi SW 9.2 mph - N/A   Overcast
6:35 AM 64.6 °F 52.7 °F 65% 29.94 in 10.0 mi SW 8.1 mph - N/A   Overcast
6:55 AM 64.8 °F 52.9 °F 65% 29.94 in 10.0 mi SW 9.2 mph - N/A   Mostly Cloudy
7:35 AM 63.7 °F 53.2 °F 69% 29.95 in 10.0 mi SW 4.6 mph - N/A   Clear
7:55 AM 63.1 °F 53.6 °F 71% 29.95 in 10.0 mi SSW 5.8 mph - N/A   Scattered Clouds
8:15 AM 62.6 °F 53.8 °F 73% 29.95 in 10.0 mi SSW 4.6 mph - N/A   Mostly Cloudy
8:35 AM 62.8 °F 54.5 °F 74% 29.96 in 10.0 mi SSW 3.5 mph - N/A   Overcast
8:55 AM 62.6 °F 54.5 °F 75% 29.96 in 10.0 mi SSW 5.8 mph - N/A   Overcast
9:15 AM 62.6 °F 54.5 °F 75% 29.97 in 10.0 mi SSW 8.1 mph - N/A   Overcast
9:35 AM 63.0 °F 54.3 °F 73% 29.98 in 10.0 mi SW 5.8 mph - N/A   Overcast
9:55 AM 63.5 °F 54.3 °F 72% 29.98 in 10.0 mi SW 3.5 mph - N/A   Overcast
10:15 AM 64.6 °F 54.1 °F 69% 29.98 in 10.0 mi WSW 3.5 mph - N/A   Overcast
10:35 AM 65.3 °F 53.8 °F 66% 29.99 in 10.0 mi WSW 6.9 mph - N/A   Overcast
10:55 AM 65.3 °F 53.6 °F 66% 30.00 in 10.0 mi WSW 8.1 mph - N/A   Overcast
11:15 AM 64.8 °F 54.1 °F 68% 30.00 in 10.0 mi WSW 8.1 mph 17.3 mph N/A   Overcast
11:55 AM 65.3 °F 54.5 °F 68% 30.00 in 10.0 mi WSW 10.4 mph 16.1 mph N/A   Overcast
12:15 PM 65.5 °F 54.5 °F 68% 30.00 in 10.0 mi WSW 8.1 mph 17.3 mph N/A   Overcast
12:35 PM 63.9 °F 55.2 °F 73% 30.00 in 7.0 mi WSW 5.8 mph - N/A Rain Light Rain
12:55 PM 64.2 °F 56.3 °F 75% 29.99 in 7.0 mi WSW 5.8 mph - N/A   Overcast
1:15 PM 65.3 °F 56.3 °F 73% 29.98 in 10.0 mi WSW 5.8 mph - N/A   Mostly Cloudy
1:35 PM 65.8 °F 55.9 °F 70% 29.98 in 10.0 mi SW 5.8 mph - N/A   Mostly Cloudy
1:55 PM 66.6 °F 56.5 °F 70% 29.96 in 10.0 mi West 5.8 mph - N/A   Scattered Clouds
2:15 PM 67.8 °F 56.5 °F 67% 29.96 in 10.0 mi West 5.8 mph - N/A   Scattered Clouds
2:35 PM 68.9 °F 57.6 °F 67% 29.94 in 10.0 mi WNW 3.5 mph - N/A   Mostly Cloudy
2:55 PM 70.9 °F 57.6 °F 63% 29.94 in 10.0 mi NW 8.1 mph - N/A   Scattered Clouds
3:15 PM 72.0 °F 57.2 °F 60% 29.95 in 10.0 mi WSW 4.6 mph - N/A   Clear
3:35 PM 72.5 °F 57.4 °F 59% 29.95 in 10.0 mi SW 6.9 mph - N/A   Clear
3:55 PM 71.4 °F 57.0 °F 60% 29.95 in 10.0 mi West 6.9 mph - N/A   Mostly Cloudy
4:15 PM 71.2 °F 56.8 °F 60% 29.95 in 10.0 mi SW 5.8 mph - N/A   Scattered Clouds
4:35 PM 69.8 °F 57.4 °F 65% 29.97 in 10.0 mi SW 6.9 mph - N/A   Clear
4:55 PM 69.6 °F 57.6 °F 65% 29.97 in 10.0 mi WSW 8.1 mph - N/A   Mostly Cloudy
5:15 PM 68.2 °F 57.9 °F 70% 29.98 in 10.0 mi WSW 9.2 mph - N/A   Mostly Cloudy
5:35 PM 67.8 °F 58.1 °F 71% 29.98 in 10.0 mi WSW 10.4 mph 16.1 mph N/A   Mostly Cloudy
5:55 PM 67.3 °F 58.3 °F 73% 29.98 in 10.0 mi SW 6.9 mph - N/A   Mostly Cloudy
6:15 PM 66.7 °F 57.7 °F 73% 29.98 in 10.0 mi SW 4.6 mph - N/A   Overcast
6:35 PM 66.4 °F 57.6 °F 73% 29.99 in 10.0 mi SSW 3.5 mph - N/A   Overcast
6:55 PM 65.8 °F 57.4 °F 74% 29.99 in 10.0 mi SSW 3.5 mph - N/A   Mostly Cloudy
7:15 PM 65.8 °F 57.4 °F 74% 30.00 in 10.0 mi Calm Calm - N/A   Mostly Cloudy
7:35 PM 65.7 °F 57.6 °F 75% 30.00 in 10.0 mi Calm Calm - N/A   Mostly Cloudy
7:55 PM 64.9 °F 57.2 °F 76% 30.00 in 10.0 mi Calm Calm - N/A   Clear
8:15 PM 64.2 °F 57.2 °F 78% 30.01 in 10.0 mi Calm Calm - N/A   Scattered Clouds
8:35 PM 64.0 °F 57.4 °F 79% 30.00 in 10.0 mi South 3.5 mph - N/A   Mostly Cloudy
8:55 PM 63.9 °F 57.6 °F 80% 30.00 in 10.0 mi South 3.5 mph - N/A   Overcast
9:15 PM 63.7 °F 58.1 °F 82% 30.01 in 10.0 mi South 3.5 mph - N/A   Overcast
9:35 PM 63.5 °F 58.1 °F 83% 30.01 in 10.0 mi South 3.5 mph - N/A   Overcast
9:55 PM 63.5 °F 58.1 °F 83% 30.01 in 10.0 mi South 3.5 mph - N/A   Overcast
10:15 PM 63.5 °F 58.1 °F 83% 30.01 in 10.0 mi Calm Calm - N/A   Overcast
10:35 PM 63.5 °F 58.1 °F 83% 30.02 in 10.0 mi South 3.5 mph - N/A   Overcast
10:55 PM 63.5 °F 58.1 °F 83% 30.02 in 10.0 mi South 3.5 mph - N/A   Overcast
11:35 PM 63.1 °F 57.6 °F 82% 30.02 in 10.0 mi SSW 3.5 mph - N/A   Overcast
11:55 PM 63.3 °F 57.4 °F 81% 30.02 in 10.0 mi SSW 3.5 mph - N/A   Overcast